Regional Weather Roundup
Issued by NWS Midland/Odessa, TX

Current Version | Previous Version | Text Only | Print | Product List | Glossary On
Versions: 1 2 3 4 5 6 7 8 9 10 11 12 13 14 15 16 17 18 19 20 21 22 23 24 25 26 27 28 29 30 31 32 33 34 35 36 37 38 39 40 41 42 43 44 45 46 47 48 49 50
000
ASUS44 KMAF 292001
RWRMAF
MIDLAND AREA WEATHER ROUNDUP
NATIONAL WEATHER SERVICE MIDLAND TX
300 PM CDT WED MAR 29 2017

...IN SOUTHWEST TEXAS AND SOUTHEAST NEW MEXICO...

CITY           SKY/WX    TMP DP  RH WIND       PRES   REMARKS
ALPINE         CLOUDY    59  34  38 N17       30.00S
ANDREWS        CLOUDY    54  36  50 NW18G28   29.94R
ARTESIA        MOSUNNY   54  37  54 N26G37    30.02F
BIG SPRING       N/A     58  40  51 NW21      29.91R
CARLSBAD       CLOUDY    55  38  52 N25G37    30.01R
DRYDEN           N/A     80  26  13 W23G32    29.81F
FORT STOCKTON  MOSUNNY   67  38  34 NW25G36   29.93R
GUAD PASS      NOT AVBL
HOBBS          LGT RAIN  48  41  76 NW18      29.97R
MARFA          PTSUNNY   65  28  24 W23G31    29.98F
MIDLAND AIRPK  PTSUNNY   60  37  42 NW20G26   29.91R
MIDLAND INTL   PTSUNNY   60  37  42 N23G31    29.90R
ODESSA           N/A     63  35  35 NW18G30   29.92R
PECOS          PTSUNNY   64  35  34 CALM      29.96R
PRESIDIO       FAIR      75  26  16 W16G29    29.93F
SEMINOLE       CLOUDY    49  38  66 N22G30    29.95R
SNYDER         CLOUDY    56  47  72 NW22      29.86R
WINK           CLOUDY    60  36  40 N24G33    29.94R
$$
...OTHER STATIONS IN TEXAS...

CITY           SKY/WX    TMP DP  RH WIND       PRES   REMARKS
ABILENE        PTSUNNY   67  47  48 W15       29.78S
AMARILLO       CLOUDY    44  41  89 N26G40    29.89S WCI  35
AUSTIN         MOSUNNY   82  50  32 CALM      29.77F
BROWNSVILLE    PTSUNNY   86  73  65 SE6       29.72F
CORPUS CHRISTI MOSUNNY   87  51  28 NE12      29.75F
DALLAS FTW     MOSUNNY   82  42  24 SW26G32   29.70S
DEL RIO        SUNNY     85  35  16 W22G30    29.76F
EL PASO        MOSUNNY   66  31  27 N14G24    29.96F
HOUSTON INT    CLOUDY    75  70  84 CALM      29.75F
LUBBOCK        LGT RAIN  47  42  83 N16G29    29.89R
SAN ANGELO     PTSUNNY   74  42  31 W22G31    29.82R
SAN ANTONIO    SUNNY     82  42  24 W13G23    29.78F
WACO           SUNNY     78  50  37 S12       29.76F
WICHITA FALLS  NOT AVBL
$$
...OTHER LOCATIONS IN NEW MEXICO...

CITY           SKY/WX    TMP DP  RH WIND       PRES   REMARKS
ALAMAGORDO       N/A    N/A N/A N/A MISG        N/A
ALBUQUERQUE    PTSUNNY   59  34  39 W8        29.98F
CANNON AFB     CLOUDY    48  45  87 N30G38    29.95R WCI  40
CLOVIS         CLOUDY    48  37  66 N25G37    29.95R
HOLLOMAN AFB   CLOUDY    57  39  50 NW16      30.03R
ROSWELL        LGT RAIN  51  43  74 N13         N/A
RUIDOSO          N/A     41  32  70 N13G18    30.06S WCI  34
SANTA FE       CLOUDY    55  31  39 N23G30    29.99S
TRUTH OR CONSE   N/A     60  33  36 N9G22     29.99F
TUCUMCARI      CLOUDY    49  41  74 NE18G24   29.96R
$$




USA.gov is the U.S. government's official web portal to all federal, state and local government web resources and services.